Wind_Speed
73 76 70 75 81 81 87 95 102 104 107 110 109 108 104 106 112 110 106 101 97 93 90 90 85 85 82 79 78 76 74 73 71 70 71 71 72 71 72 71 70 72 73 73
69 71 73 76 81 81 84 93 99 104 110 108 109 107 106 105 110 114 112 106 102 96 89 87 85 82 83 84 83 81 79 77 76 75 75 75 76 76 76 76 76 75 75 75
63 71 68 72 74 77 83 90 98 103 106 109 109 109 106 106 107 114 115 110 105 97 91 88 86 84 82 82 83 84 83 82 81 80 79 78 79 79 78 77 76 76 77 77
60 65 65 71 72 73 79 88 95 100 104 106 110 108 106 107 109 110 114 114 109 104 98 94 91 88 86 85 84 83 82 82 83 82 81 81 80 80 79 79 80 79 78 78
53 57 62 67 71 73 75 83 90 96 101 106 110 107 106 108 107 106 109 116 115 108 104 100 97 93 91 88 86 85 84 83 81 79 79 80 80 78 77 77 77 77 77 78
50 55 63 65 71 70 74 77 82 89 98 102 105 104 109 108 108 108 111 113 112 115 110 104 100 97 96 93 90 88 86 85 83 80 79 79 78 79 79 79 79 80 80 81
45 50 56 61 65 67 68 71 77 84 91 97 101 101 107 109 107 108 109 112 110 108 111 108 106 103 99 97 94 92 91 89 87 85 83 83 83 82 82 82 82 83 84 85
38 41 48 54 60 64 66 69 72 80 86 94 100 98 104 109 107 110 108 110 110 105 106 111 112 109 105 101 99 98 96 94 92 89 87 86 85 85 85 85 86 85 85 85
26 28 38 51 57 62 63 66 70 76 83 89 95 96 100 107 108 108 107 106 109 108 105 102 108 110 109 107 105 102 100 99 97 95 93 91 90 88 88 88 88 88 89 90
14 21 28 42 51 54 59 65 67 71 78 82 86 92 98 102 108 105 104 104 106 106 106 104 102 103 107 108 106 104 102 101 101 100 98 97 95 94 93 93 94 94 95 96
15 19 22 29 39 50 55 59 62 68 74 78 80 88 95 101 105 107 103 104 105 107 105 100 100 99 101 104 106 107 106 104 104 103 102 101 100 100 100 101 101 101 101 102
21 23 20 27 39 49 54 57 59 62 67 75 77 80 101 103 103 106 106 104 103 103 101 99 97 98 99 99 102 104 104 104 103 104 104 104 105 105 106 107 106 106 106 106
23 25 28 33 35 37 42 48 53 57 63 68 74 76 96 96 109 103 104 104 100 93 89 90 92 90 90 92 93 94 97 100 104 105 104 104 105 104 105 107 108 108 108 106
12 23 29 37 41 45 48 55 59 64 63 63 66 80 85 94 92 97 102 99 103 93 81 84 88 84 85 88 88 86 88 92 91 92 93 95 97 98 99 99 103 103 102 100
11 15 22 29 36 43 49 55 63 63 63 60 65 69 78 81 84 91 91 94 98 106 104 95 87 92 90 80 83 85 82 84 84 87 87 88 86 88 87 88 89 93 95 97
11 13 16 22 27 33 39 46 52 56 58 60 69 67 74 71 75 77 80 86 86 89 96 107 103 102 91 86 85 85 86 88 90 92 90 92 94 94 93 93 92 96 101 98
11 13 15 18 20 25 31 36 41 48 52 55 56 65 65 67 68 71 71 73 77 81 85 86 88 92 94 94 93 93 94 93 93 95 95 97 97 99 98 98 102 104 95 90
12 14 16 17 19 24 26 28 32 37 42 45 48 54 56 59 61 64 66 68 70 70 71 75 77 76 76 77 79 79 81 81 82 82 86 86 86 86 87 89 87 84 82 79
15 16 16 19 20 25 25 26 29 34 36 39 43 45 47 49 50 55 55 57 62 65 67 68 70 70 70 70 71 71 73 74 74 76 78 79 80 79 77 77 75 71 65 65
21 20 21 20 20 24 25 25 27 30 30 35 38 40 42 45 49 47 47 51 55 57 59 62 65 66 68 68 69 69 69 69 70 70 70 70 69 68 67 63 59 62 59 55
26 24 25 24 25 25 22 24 27 29 33 34 35 37 40 42 42 42 45 48 50 54 56 58 59 62 62 63 65 66 66 66 63 62 62 63 61 59 57 56 56 53 51 49
30 29 28 29 29 27 28 26 25 27 32 34 35 37 38 38 39 40 41 43 45 47 47 48 49 51 53 56 59 59 59 59 58 58 59 59 58 57 54 51 54 51 53 55
33 33 32 32 32 32 31 31 29 29 30 31 32 33 36 39 41 43 44 43 43 43 43 44 45 43 42 44 46 50 51 54 55 56 59 59 60 59 62 59 55 57 57 53
34 35 35 33 32 33 33 33 34 35 32 33 33 33 35 39 41 42 45 45 44 44 46 45 44 45 44 41 42 43 43 43 44 44 46 47 50 52 51 46 47 52 54 54
32 34 36 36 34 35 35 35 36 37 38 36 34 35 36 36 38 40 42 44 46 46 45 44 46 45 45 41 39 38 40 43 45 45 45 44 44 44 42 42 46 51 51 52
31 33 35 37 35 38 36 36 38 38 39 39 37 35 36 36 36 35 37 37 38 39 40 41 42 44 46 44 42 40 39 38 39 40 41 41 40 40 42 45 49 51 55 56
Wind_Direction
207 212 207 209 213 211 210 209 210 213 218 220 220 220 221 221 219 219 220 224 226 227 230 231 229 230 236 239 240 241 242 245 247 250 254 257 259 262 265 268 271 274 276 278
208 211 207 209 210 210 209 209 212 213 216 219 221 221 221 222 222 221 222 222 225 226 227 231 234 236 236 238 241 243 245 247 249 251 253 255 259 261 264 266 270 273 276 278
208 210 206 209 212 211 209 209 211 213 216 218 221 222 222 223 225 224 222 224 225 227 228 229 233 235 239 242 244 246 247 248 249 252 254 256 259 262 265 268 271 274 276 280
207 209 205 207 210 212 211 211 212 214 215 218 221 222 224 224 224 227 227 224 225 226 227 229 230 233 236 240 244 246 248 250 252 253 255 258 260 263 266 269 272 275 277 279
208 208 206 206 208 213 212 214 214 214 216 218 222 221 224 226 225 228 230 229 225 226 228 231 231 232 235 238 241 244 246 249 252 255 258 260 262 264 266 268 270 272 274 275
209 207 206 207 209 212 213 214 216 217 217 219 222 223 225 226 228 227 230 233 232 227 227 229 232 234 235 238 240 243 246 248 250 253 256 259 261 263 265 268 270 272 274 275
209 208 209 207 210 213 214 216 217 219 220 221 223 223 225 229 228 231 231 236 236 235 230 230 232 234 236 238 241 243 245 247 249 251 254 256 259 261 263 266 269 272 274 277
209 212 208 206 210 213 214 216 218 220 221 223 225 224 224 231 231 232 233 235 239 240 235 233 234 235 237 239 241 243 245 248 250 252 254 256 259 261 263 265 267 270 273 275
210 215 206 209 210 212 216 217 217 220 223 224 226 227 226 230 234 234 237 237 239 241 243 238 237 238 240 242 243 244 245 247 250 253 255 257 258 261 263 265 268 269 271 273
216 216 210 209 211 213 216 219 219 221 224 227 227 229 228 230 234 237 239 240 242 242 243 245 245 242 241 242 245 247 249 251 253 254 256 257 259 261 263 265 267 270 272 274
176 204 206 211 212 214 217 221 222 223 225 227 229 230 232 232 235 239 241 242 242 245 246 245 245 247 246 245 246 248 249 251 253 254 256 258 260 261 263 265 266 268 271 273
190 174 192 202 212 214 217 222 223 224 226 228 229 230 231 233 237 240 243 244 245 247 248 249 250 250 249 249 249 250 251 253 255 256 257 259 261 262 264 265 267 269 271 272
204 199 203 207 211 214 218 224 225 225 226 227 228 230 233 233 236 241 243 247 249 250 251 251 252 252 251 251 251 251 253 255 256 257 259 260 261 263 265 265 267 269 272 274
226 218 219 217 211 208 211 214 219 222 223 224 225 229 233 234 236 238 243 246 249 253 253 254 254 253 254 254 253 254 255 255 255 257 259 260 261 263 264 265 266 269 271 274
256 245 237 232 226 224 219 220 222 224 225 225 230 231 235 235 237 239 242 244 247 248 252 254 256 258 257 251 254 257 256 254 254 255 257 259 261 262 265 267 268 270 272 276
263 257 251 242 238 236 234 235 236 234 233 229 230 232 237 237 239 240 241 244 247 248 251 254 255 256 256 258 260 259 257 260 260 259 261 261 263 266 270 269 273 279 282 281
254 251 252 249 246 241 239 239 239 239 238 238 239 241 241 242 241 242 242 244 246 248 250 252 253 255 257 259 260 262 263 264 264 264 266 269 270 272 272 272 275 277 277 278
248 245 246 244 245 247 247 244 242 241 240 238 238 241 243 245 244 244 245 245 247 249 250 252 254 255 256 257 257 257 258 259 260 261 263 265 267 269 270 270 273 274 274 276
252 249 250 247 243 245 243 246 247 244 245 243 242 243 243 244 243 243 243 244 246 248 250 250 251 254 255 255 256 257 258 258 260 261 263 264 266 268 270 270 271 273 273 273
254 250 244 247 246 246 246 245 246 249 250 246 245 246 245 246 247 247 245 245 246 247 248 249 251 253 254 255 255 256 256 258 260 262 263 263 264 265 267 270 268 273 275 273
257 255 253 250 248 248 253 247 246 246 248 246 248 250 250 251 253 253 249 250 250 252 252 251 251 253 253 253 254 255 256 256 258 259 260 262 264 266 269 267 267 268 271 272
260 255 253 252 253 249 248 251 251 247 247 248 246 248 250 253 255 255 255 254 254 253 255 257 258 256 255 256 256 257 256 256 256 257 261 262 263 263 264 261 269 267 267 276
262 256 253 249 249 250 248 250 251 252 253 255 251 250 252 253 254 254 255 257 258 260 260 260 261 261 259 258 255 257 259 259 258 257 258 260 261 261 260 263 262 264 270 275
264 261 256 253 252 250 249 247 248 249 251 251 251 252 252 254 256 257 258 259 259 258 258 259 260 260 261 258 259 257 255 254 253 254 255 256 256 257 257 255 261 266 269 271
263 257 258 254 250 250 250 249 249 249 247 248 251 248 248 250 252 254 256 258 259 259 257 254 255 254 257 256 254 253 254 254 252 252 254 255 254 251 252 255 260 265 266 272
266 264 258 256 252 252 250 249 248 247 248 248 246 250 251 250 250 253 254 255 255 256 256 254 252 251 252 254 255 257 255 258 253 251 250 249 248 250 253 256 260 263 268 273
Height
10431 10443 10474 10484 10491 10508 10519 10534 10541 10552 10568 10582 10596 10609 10628 10642 10656 10668 10683 10694 10705 10715 10729 10739 10746 10753 10762 10766 10770 10776 10781 10786 10790 10794 10798 10801 10802 10805 10806 10807 10808 10810 10811 10810
10427 10443 10455 10469 10480 10493 10508 10523 10534 10540 10550 10570 10582 10600 10615 10626 10640 10656 10668 10682 10691 10705 10720 10730 10739 10746 10750 10755 10760 10766 10771 10775 10780 10784 10788 10790 10792 10793 10794 10796 10798 10799 10799 10798
10422 10433 10452 10465 10480 10489 10499 10510 10519 10532 10545 10558 10572 10584 10602 10620 10626 10640 10657 10670 10683 10699 10710 10719 10726 10733 10739 10744 10749 10755 10761 10766 10770 10773 10776 10778 10780 10781 10783 10785 10786 10786 10785 10784
10415 10429 10446 10458 10470 10482 10493 10499 10510 10525 10537 10552 10558 10578 10594 10603 10615 10624 10640 10658 10668 10680 10691 10700 10708 10716 10722 10728 10735 10741 10747 10752 10757 10762 10765 10768 10770 10771 10772 10773 10772 10774 10774 10772
10414 10429 10442 10453 10463 10473 10484 10493 10506 10519 10531 10540 10550 10571 10585 10590 10608 10622 10629 10635 10654 10666 10676 10684 10693 10702 10709 10716 10722 10728 10734 10739 10744 10749 10753 10757 10759 10760 10760 10760 10760 10760 10761 10760
10410 10423 10433 10447 10456 10468 10477 10490 10502 10514 10524 10535 10544 10563 10570 10584 10595 10605 10610 10618 10634 10649 10660 10670 10680 10688 10696 10703 10710 10717 10722 10727 10732 10736 10740 10743 10745 10746 10747 10747 10746 10746 10746 10745
10409 10420 10431 10444 10453 10464 10477 10488 10496 10508 10518 10528 10536 10553 10563 10567 10581 10590 10598 10603 10617 10634 10652 10660 10666 10672 10681 10689 10696 10702 10707 10713 10718 10722 10726 10729 10732 10733 10734 10734 10733 10731 10730 10729
10410 10418 10431 10443 10453 10462 10471 10480 10492 10501 10510 10519 10525 10546 10557 10553 10565 10572 10583 10591 10600 10614 10632 10641 10649 10658 10667 10675 10682 10688 10694 10699 10704 10709 10712 10715 10717 10719 10719 10719 10718 10717 10716 10714
10412 10419 10428 10437 10445 10455 10466 10475 10483 10492 10500 10508 10521 10535 10543 10542 10551 10562 10570 10580 10588 10599 10606 10622 10635 10645 10653 10659 10665 10672 10679 10685 10690 10693 10696 10699 10701 10702 10703 10702 10702 10701 10700 10698
10413 10417 10424 10432 10441 10452 10459 10463 10474 10483 10492 10502 10513 10521 10526 10535 10539 10549 10556 10565 10570 10582 10592 10601 10613 10626 10636 10643 10650 10658 10664 10669 10673 10676 10679 10682 10684 10685 10685 10685 10684 10684 10683 10681
10411 10416 10422 10429 10439 10445 10451 10460 10468 10474 10484 10492 10502 10510 10515 10523 10527 10533 10542 10548 10556 10562 10573 10586 10597 10607 10616 10624 10632 10638 10644 10650 10654 10657 10660 10663 10665 10666 10667 10666 10666 10666 10666 10664
10407 10411 10418 10423 10427 10434 10441 10449 10459 10468 10476 10481 10492 10502 10499 10506 10515 10518 10526 10534 10540 10549 10558 10568 10578 10586 10594 10603 10612 10618 10622 10626 10631 10636 10639 10643 10644 10645 10646 10646 10648 10647 10646 10645
10407 10410 10411 10414 10420 10428 10437 10441 10446 10453 10459 10468 10479 10488 10474 10491 10500 10505 10510 10516 10523 10534 10543 10550 10559 10568 10576 10583 10591 10597 10602 10606 10609 10613 10617 10620 10621 10623 10624 10625 10627 10627 10626 10624
10403 10405 10407 10411 10413 10417 10420 10423 10427 10432 10443 10453 10463 10458 10459 10473 10480 10491 10498 10504 10510 10517 10524 10533 10539 10545 10556 10562 10569 10576 10581 10586 10589 10592 10595 10598 10600 10602 10603 10604 10604 10605 10605 10603
10399 10399 10402 10405 10408 10412 10415 10416 10418 10426 10430 10445 10442 10452 10449 10458 10465 10475 10479 10485 10492 10500 10505 10511 10519 10527 10533 10540 10547 10554 10559 10565 10569 10572 10575 10578 10578 10580 10582 10583 10584 10583 10583 10582
10396 10397 10398 10400 10402 10405 10409 10412 10416 10420 10424 10431 10428 10438 10434 10449 10453 10460 10467 10473 10479 10484 10489 10496 10502 10509 10516 10522 10527 10532 10537 10541 10545 10551 10555 10556 10558 10559 10561 10563 10565 10564 10563 10559
10392 10393 10394 10395 10397 10399 10400 10402 10406 10409 10413 10418 10426 10420 10432 10435 10441 10447 10454 10458 10463 10469 10474 10478 10484 10491 10497 10504 10509 10513 10517 10522 10526 10529 10533 10536 10538 10541 10542 10543 10545 10547 10543 10541
10388 10388 10389 10391 10392 10392 10394 10397 10400 10402 10405 10409 10411 10415 10421 10424 10431 10434 10439 10443 10449 10455 10460 10464 10468 10473 10479 10484 10489 10493 10498 10502 10505 10508 10512 10516 10519 10521 10522 10522 10524 10524 10524 10522
10382 10383 10384 10385 10387 10387 10390 10392 10393 10395 10398 10402 10403 10407 10411 10414 10418 10419 10426 10431 10436 10440 10445 10449 10453 10458 10462 10466 10470 10475 10480 10484 10488 10492 10496 10498 10501 10502 10504 10505 10505 10506 10505 10504
10378 10378 10378 10380 10381 10381 10383 10386 10388 10389 10393 10394 10396 10400 10402 10404 10405 10413 10418 10419 10421 10426 10431 10435 10439 10443 10447 10450 10455 10459 10464 10468 10472 10475 10478 10481 10483 10484 10486 10488 10489 10489 10488 10488
10372 10372 10373 10374 10375 10376 10378 10378 10380 10382 10383 10386 10389 10391 10393 10395 10399 10403 10405 10408 10411 10413 10417 10420 10424 10428 10432 10436 10439 10444 10448 10451 10455 10458 10460 10463 10466 10469 10471 10473 10472 10473 10473 10472
10366 10365 10366 10367 10368 10370 10370 10372 10373 10374 10374 10376 10380 10381 10384 10387 10389 10392 10394 10398 10400 10403 10406 10410 10412 10415 10418 10421 10424 10428 10432 10436 10440 10443 10445 10448 10451 10453 10456 10456 10458 10458 10459 10460
10358 10358 10358 10359 10361 10362 10363 10364 10366 10366 10367 10368 10370 10372 10374 10377 10379 10381 10383 10387 10390 10393 10395 10398 10400 10403 10406 10409 10413 10415 10417 10420 10424 10427 10430 10433 10436 10438 10440 10442 10443 10445 10446 10446
10350 10350 10350 10350 10352 10353 10355 10356 10357 10358 10359 10360 10361 10362 10364 10366 10368 10371 10373 10375 10378 10381 10384 10386 10388 10391 10394 10398 10400 10402 10405 10408 10410 10413 10416 10418 10421 10423 10425 10426 10430 10432 10432 10433
10340 10341 10341 10340 10342 10342 10344 10347 10348 10349 10350 10352 10353 10355 10356 10357 10358 10361 10363 10364 10366 10369 10371 10374 10376 10379 10382 10384 10388 10390 10393 10395 10398 10400 10403 10405 10407 10410 10412 10415 10418 10419 10419 10419
10330 10330 10330 10330 10332 10331 10334 10336 10337 10338 10340 10342 10344 10346 10347 10348 10349 10351 10353 10355 10356 10357 10359 10362 10365 10367 10369 10372 10375 10379 10382 10384 10386 10388 10391 10394 10396 10399 10402 10404 10405 10406 10406 10405